Location: Kalwaria Zebrzydowska
(49.8686°N, 19.6647°E)
Time: 19:20:43
(UTC+01:00)

ISS - Visible Passes

Search period start: 22 February 2018 00:00
Search period end: 04 March 2018 00:00
Orbit: 402 x 407 km, 51.6° (Epoch: 23 February)

Date Brightness Start Highest point End Pass type
(mag) Time Alt. Az. Time Alt. Az. Time Alt. Az.
27 Feb -1.0 05:34:03 10° S 05:36:15 17° SE 05:38:28 10° E visible
28 Feb -0.7 04:43:41 10° SE 04:44:13 10° SE 04:44:46 10° SE visible
01 Mar -2.2 05:24:56 10° SSW 05:27:52 31° SSE 05:30:49 10° E visible
02 Mar -1.5 04:34:05 14° S 04:35:44 20° SE 04:38:11 10° E visible
03 Mar -0.9 03:44:04 12° SE 03:44:04 12° SE 03:45:05 10° ESE visible
03 Mar -3.3 05:16:44 13° SW 05:19:32 55° SSE 05:22:46 10° ENE visible
